This demonstration page uses our WeatherBlox Daily Observations layout. Learn more.

Left ArrowRight Arrow

Hourly Observations for October 27, 2021

Temp ( °F °C ) Dew Point ( °F °C ) Humidity (%) Winds ( mph kmh ) Pressure ( in mb ) Visibility ( mi km ) Precip ( " mm )
12:11 am 00:11 Cloudy 59 15 51 10.6 75 75 SE 14 22 29.62 1003 10 16 N/A
12:54 am 00:54 Cloudy 59 15 52 11.1 78 78 SE 15 24 29.61 1003 10 16 N/A
1:10 am 01:10 Cloudy with Haze 58 14.4 53 11.7 84 84 SE 15 24 29.61 1003 6 10 0.00 0.00
1:54 am 01:54 Cloudy with Light Rain 57 13.9 54 12.2 90 90 SE 13 20 29.62 1003 5 8 0.01 0.25
2:17 am 02:17 Cloudy 57 13.9 54 12.2 90 90 ESE 8 13 29.62 1003 8 13 0.00 0.00
2:54 am 02:54 Cloudy with Light Rain 57 13.9 54 12.2 90 90 ENE 7 11 29.62 1003 10 16 0.01 0.25
3:54 am 03:54 Cloudy 58 14.4 55 12.8 90 90 E 14 22 29.58 1002 10 16 0.00 0.00
4:54 am 04:54 Cloudy with Rain 58 14.4 55 12.8 90 90 SE 16 26 29.60 1003 5 8 0.04 1.02
5:33 am 05:33 Cloudy with Rain 58 14.4 55 12.8 90 90 SE 15 24 29.61 1003 4 6 0.18 4.57
5:54 am 05:54 Cloudy with Light Rain 58 14.4 55 12.8 90 90 SE 14 22 29.62 1003 7 11 0.21 5.33
6:02 am 06:02 Cloudy with Light Rain 58 14.4 55 12.8 90 90 SE 13 20 29.63 1003 7 11 0.01 0.25
6:17 am 06:17 Cloudy with Rain 58 14.4 55 12.8 90 90 SSE 10 17 29.63 1003 6 10 0.02 0.51
6:31 am 06:31 Cloudy with Rain 58 14.4 55 12.8 90 90 SE 12 19 29.62 1003 5 8 0.05 1.27
6:54 am 06:54 Cloudy with Rain 58 14.4 55 12.8 90 90 ESE 17 28 29.59 1002 5 8 0.10 2.54
7:34 am 07:34 Cloudy with Light Rain 57 13.9 55 12.8 93 93 SE 15 24 29.58 1002 10 16 0.03 0.76
7:43 am 07:43 Cloudy with Light Rain 57 13.9 55 12.8 93 93 SE 16 26 29.58 1002 8 13 0.03 0.76
7:54 am 07:54 Cloudy with Light Rain 57 13.9 54 12.2 90 90 SE 18 30 29.59 1002 8 13 0.04 1.02
8:54 am 08:54 Cloudy with Light Rain 56 13.3 54 12.2 93 93 SE 13 20 29.61 1003 7 11 0.05 1.27
9:54 am 09:54 Cloudy with Rain 57 13.9 54 12.2 90 90 ESE 10 17 29.60 1002 4 6 0.12 3.05
10:54 am 10:54 Cloudy with Light Rain 57 13.9 54 12.2 90 90 SE 8 13 29.62 1003 6 10 0.07 1.78
11:54 am 11:54 Cloudy with Light Rain 56 13.3 54 12.2 93 93 ESE 9 15 29.62 1003 4 6 0.06 1.52
12:54 pm 12:54 Cloudy with Light Rain 56 13.3 54 12.2 93 93 ESE 6 9 29.60 1003 6 10 0.03 0.76
1:54 pm 13:54 Cloudy with Light Rain 57 13.9 54 12.2 90 90 ESE 9 15 29.59 1002 4 6 0.07 1.78
2:54 pm 14:54 Cloudy with Light Rain 56 13.3 54 12.2 93 93 E 6 9 29.57 1001 5 8 0.04 1.02
3:54 pm 15:54 Cloudy with Light Rain 56 13.3 53 11.7 90 90 N N/A 29.57 1002 5 8 0.06 1.52
4:41 pm 16:41 Cloudy with Heavy Rain 56 13.3 53 11.7 90 90 NNE 6 9 29.60 1002 2 3 0.10 2.54
4:54 pm 16:54 Cloudy with Rain 56 13.3 53 11.7 90 90 NNE 7 11 29.60 1002 3 4 0.15 3.81
5:12 pm 17:12 Cloudy with Heavy Rain 55 12.8 53 11.7 93 93 N 6 9 29.61 1003 2 2 0.07 1.78
5:22 pm 17:22 Cloudy with Rain 55 12.8 53 11.7 93 93 NNW 9 15 29.61 1003 3 4 0.10 2.54
5:40 pm 17:40 Cloudy with Rain 53 11.7 50 10 89 89 NNW 14 22 29.62 1003 5 8 0.18 4.57
5:54 pm 17:54 Cloudy with Rain 52 11.1 49 9.4 89 89 NNW 17 28 29.61 1003 5 8 0.20 5.08
6:21 pm 18:21 Cloudy with Rain 52 11.1 49 9.4 89 89 NNW 18 30 29.63 1003 5 8 0.03 0.76
6:28 pm 18:28 Cloudy with Rain 51 10.6 48 8.9 89 89 NNW 18 30 29.63 1003 6 10 0.04 1.02
6:49 pm 18:49 Cloudy with Light Rain 52 11 48 9 88 88 NNW 17 28 29.64 1004 7 11 0.07 1.78
6:54 pm 18:54 Cloudy with Rain 51 10.6 48 8.9 89 89 NNW 16 26 29.63 1004 7 11 0.08 2.03
7:54 pm 19:54 Cloudy with Rain 51 10.6 48 8.9 89 89 NNW 15 24 29.67 1005 5 8 0.11 2.79
8:25 pm 20:25 Cloudy with Light Rain 51 10.6 47 8.3 86 86 NNW 17 28 29.68 1005 7 11 0.04 1.02
8:54 pm 20:54 Cloudy with Light Rain 50 10 47 8.3 89 89 NNW 16 26 29.67 1005 10 16 0.06 1.52
9:15 pm 21:15 Cloudy with Light Rain 50 10 47 8.3 89 89 NNW 17 28 29.69 1005 10 16 0.01 0.25
9:54 pm 21:54 Cloudy with Light Rain 50 10 47 8.3 89 89 NNW 17 28 29.68 1005 10 16 0.03 0.76
10:54 pm 22:54 Cloudy with Light Rain 50 10 46 7.8 86 86 NNW 17 28 29.69 1006 10 16 0.01 0.25
11:28 pm 23:28 Cloudy with Light Rain 50 10 46 7.8 86 86 NNW 15 24 29.71 1006 7 11 0.02 0.51
11:54 pm 23:54 Cloudy with Rain 50 10 46 7.8 86 86 N 21 33 29.70 1006 6 10 0.06 1.52

Powered by AerisWeather